Total_Precipitation_Accumulation
0.80 0.64 0.56 0.56 0.55 0.51 0.57 0.81 1.30 1.82 2.28 2.56 2.73 2.76 2.71 2.56 2.39 2.39 2.46 2.41 2.28 2.20 2.13 1.94 1.83 1.83 1.80 1.76 1.71 1.76 1.87 1.97 2.01 1.92 1.85 1.83 1.87 1.74 1.55 1.49 1.45 1.53 1.48 1.42
0.73 0.59 0.58 0.68 0.67 0.68 0.75 0.94 1.23 1.71 2.38 2.43 2.34 2.18 2.20 2.21 2.22 2.34 2.53 2.56 2.39 2.30 2.19 1.99 1.84 1.74 1.69 1.59 1.51 1.58 1.65 1.84 1.94 1.85 1.76 1.67 1.70 1.68 1.63 1.56 1.52 1.49 1.47 1.42
0.96 0.73 0.90 1.34 1.07 1.04 1.14 1.20 1.39 1.85 2.07 1.81 1.85 1.90 1.99 2.02 2.10 2.32 2.50 2.49 2.39 2.38 2.26 2.08 1.93 1.81 1.84 1.67 1.48 1.58 1.62 1.64 1.74 1.74 1.78 1.76 1.71 1.69 1.72 1.75 1.72 1.58 1.45 1.42
1.03 1.24 1.87 1.73 1.12 1.06 1.19 1.32 1.23 1.32 1.37 1.45 1.59 1.72 1.87 1.93 2.06 2.33 2.50 2.61 2.59 2.48 2.31 2.03 1.83 1.74 1.72 1.68 1.56 1.59 1.58 1.51 1.54 1.54 1.58 1.61 1.69 1.73 1.73 1.71 1.70 1.65 1.52 1.47
1.35 1.77 2.02 1.72 1.13 1.06 1.32 1.61 1.24 1.21 1.17 1.27 1.38 1.59 2.02 2.06 2.09 2.27 2.47 2.50 2.50 2.38 2.26 2.16 1.90 1.78 1.66 1.61 1.64 1.56 1.43 1.36 1.32 1.30 1.37 1.40 1.48 1.62 1.72 1.73 1.63 1.52 1.44 1.41
1.55 2.12 2.63 2.21 1.11 0.78 1.18 2.09 1.43 1.13 1.06 1.23 1.45 1.93 2.13 1.90 1.85 1.91 1.98 2.02 2.01 1.96 1.91 1.93 1.75 1.68 1.64 1.61 1.61 1.53 1.36 1.23 1.19 1.24 1.35 1.38 1.42 1.57 1.64 1.69 1.54 1.35 1.29 1.32
1.62 2.16 2.37 1.39 0.86 0.96 1.99 2.43 1.73 1.40 1.25 1.27 1.49 1.67 1.58 1.49 1.60 1.70 1.76 1.82 1.73 1.70 1.73 1.69 1.57 1.57 1.59 1.56 1.49 1.35 1.24 1.22 1.25 1.28 1.39 1.40 1.49 1.60 1.54 1.41 1.41 1.34 1.28 1.30
1.88 2.39 2.48 1.11 0.92 1.61 2.01 1.59 1.53 1.50 1.42 1.36 1.30 1.25 1.29 1.42 1.68 1.79 1.88 1.82 1.74 1.72 1.64 1.57 1.57 1.62 1.61 1.55 1.34 1.25 1.23 1.28 1.33 1.32 1.26 1.25 1.44 1.55 1.49 1.44 1.39 1.34 1.29 1.23
2.04 2.22 1.69 1.04 1.10 1.25 1.36 1.41 1.38 1.36 1.26 1.17 1.20 1.22 1.18 1.34 1.54 1.70 1.84 1.81 1.79 1.72 1.62 1.54 1.52 1.57 1.54 1.39 1.18 1.12 1.23 1.38 1.44 1.37 1.40 1.38 1.37 1.42 1.49 1.51 1.37 1.26 1.21 1.14
1.84 1.75 1.34 1.08 1.02 1.02 1.14 1.24 1.21 1.24 1.19 1.14 1.28 1.30 1.22 1.29 1.46 1.65 1.74 1.62 1.59 1.53 1.46 1.40 1.34 1.30 1.28 1.18 1.11 1.17 1.28 1.39 1.43 1.45 1.51 1.47 1.38 1.25 1.22 1.23 1.21 1.14 1.09 1.00
2.15 1.96 1.64 1.26 1.09 1.10 1.11 1.16 1.22 1.32 1.27 1.24 1.28 1.30 1.28 1.31 1.38 1.42 1.52 1.55 1.49 1.42 1.32 1.20 1.15 1.10 1.03 1.01 1.02 1.13 1.23 1.30 1.32 1.35 1.39 1.43 1.33 1.19 1.13 1.04 0.99 0.96 0.88 0.81
2.59 2.14 2.01 1.54 1.19 1.20 1.25 1.25 1.27 1.26 1.15 1.08 1.08 1.13 1.17 1.18 1.21 1.23 1.31 1.42 1.46 1.35 1.25 1.11 1.06 1.06 0.99 0.93 0.96 1.07 1.13 1.12 1.07 1.12 1.18 1.21 1.24 1.16 0.96 0.80 0.70 0.64 0.64 0.61
2.09 1.70 1.55 1.42 1.26 1.29 1.27 1.08 1.01 1.06 1.03 0.98 0.96 1.00 1.05 1.01 1.03 1.10 1.20 1.23 1.27 1.22 1.07 1.02 0.97 0.95 0.94 0.90 0.91 0.99 1.07 1.04 0.94 0.89 0.98 1.03 1.03 1.10 1.03 0.80 0.58 0.48 0.49 0.53
1.50 1.43 1.38 1.17 1.07 1.00 0.91 0.84 0.83 0.92 0.92 0.84 0.83 0.88 0.94 0.91 0.90 0.98 1.11 1.07 1.05 1.00 0.92 0.95 0.95 0.93 0.85 0.84 0.91 0.95 0.95 0.90 0.85 0.87 0.87 0.86 0.85 0.86 0.88 0.95 0.85 0.65 0.53 0.53
1.15 1.18 1.10 0.90 0.85 0.84 0.74 0.72 0.76 0.82 0.81 0.83 0.79 0.89 0.97 0.90 0.86 0.84 0.96 0.96 0.93 0.89 0.87 0.87 0.89 0.90 0.84 0.86 0.89 0.95 0.98 0.92 0.86 0.84 0.81 0.77 0.74 0.71 0.71 0.77 0.82 0.80 0.72 0.63
0.85 0.84 0.85 0.88 0.91 0.88 0.88 0.84 0.84 0.85 0.85 0.82 0.83 0.88 0.93 0.98 0.91 0.86 0.90 0.88 0.93 0.95 0.89 0.85 0.82 0.75 0.75 0.81 0.83 0.90 0.94 0.92 0.89 0.86 0.75 0.70 0.68 0.68 0.68 0.74 0.78 0.78 0.79 0.78
0.89 0.88 0.89 1.00 1.03 1.05 1.09 1.03 0.95 0.89 0.92 0.88 0.81 0.79 0.81 0.91 1.02 1.04 1.00 0.89 0.89 0.93 0.89 0.86 0.75 0.66 0.66 0.69 0.78 0.80 0.84 0.89 0.89 0.79 0.69 0.64 0.66 0.65 0.63 0.68 0.71 0.75 0.70 0.71
0.92 0.86 0.83 0.94 1.00 1.01 1.00 0.97 0.94 0.91 0.97 0.91 0.77 0.76 0.85 0.95 0.99 0.99 0.95 0.90 0.90 0.92 0.87 0.81 0.73 0.67 0.64 0.66 0.73 0.76 0.82 0.82 0.81 0.74 0.71 0.66 0.64 0.64 0.61 0.64 0.67 0.71 0.68 0.68
0.83 0.78 0.71 0.76 0.84 0.88 0.90 0.93 0.95 0.86 0.84 0.84 0.80 0.80 0.86 0.95 0.94 0.93 0.95 0.97 1.01 1.02 0.89 0.75 0.74 0.74 0.71 0.72 0.73 0.71 0.77 0.80 0.82 0.80 0.77 0.75 0.73 0.69 0.68 0.68 0.68 0.68 0.68 0.69
0.71 0.70 0.69 0.69 0.71 0.80 0.87 0.86 0.85 0.81 0.78 0.83 0.84 0.85 0.89 0.89 0.88 0.91 0.96 1.03 1.00 0.89 0.81 0.75 0.69 0.74 0.73 0.79 0.81 0.75 0.77 0.78 0.79 0.82 0.84 0.83 0.82 0.78 0.69 0.62 0.61 0.62 0.64 0.64
0.69 0.68 0.67 0.69 0.70 0.72 0.75 0.73 0.74 0.78 0.78 0.82 0.89 0.97 0.98 0.91 0.84 0.87 0.93 0.99 0.96 0.86 0.79 0.76 0.71 0.74 0.73 0.78 0.83 0.77 0.73 0.74 0.73 0.71 0.71 0.74 0.78 0.79 0.73 0.66 0.60 0.57 0.57 0.60
0.73 0.69 0.62 0.62 0.64 0.70 0.72 0.71 0.73 0.71 0.71 0.77 0.87 0.95 1.01 0.95 0.87 0.87 0.85 0.89 0.88 0.87 0.83 0.74 0.70 0.74 0.74 0.72 0.73 0.73 0.64 0.65 0.66 0.63 0.59 0.58 0.58 0.57 0.58 0.62 0.65 0.63 0.58 0.60
0.78 0.70 0.62 0.59 0.61 0.65 0.61 0.60 0.66 0.71 0.72 0.75 0.81 0.87 0.91 0.85 0.82 0.85 0.85 0.82 0.81 0.84 0.80 0.78 0.82 0.76 0.64 0.59 0.68 0.71 0.68 0.65 0.63 0.58 0.53 0.51 0.52 0.53 0.52 0.51 0.54 0.53 0.54 0.55
0.79 0.72 0.66 0.59 0.58 0.61 0.63 0.64 0.63 0.67 0.72 0.74 0.75 0.79 0.82 0.82 0.78 0.72 0.69 0.77 0.78 0.73 0.69 0.75 0.77 0.69 0.62 0.56 0.60 0.62 0.64 0.64 0.63 0.59 0.57 0.55 0.55 0.59 0.56 0.51 0.50 0.48 0.48 0.50
0.88 0.77 0.66 0.63 0.66 0.69 0.70 0.68 0.66 0.66 0.75 0.78 0.75 0.76 0.76 0.76 0.75 0.70 0.65 0.69 0.77 0.71 0.63 0.66 0.69 0.67 0.58 0.54 0.57 0.60 0.59 0.58 0.58 0.56 0.57 0.60 0.61 0.60 0.56 0.52 0.51 0.52 0.54 0.56
1.03 0.93 0.82 0.75 0.69 0.68 0.71 0.75 0.75 0.70 0.75 0.83 0.81 0.74 0.73 0.69 0.62 0.61 0.66 0.71 0.73 0.72 0.63 0.61 0.65 0.67 0.60 0.57 0.60 0.58 0.53 0.52 0.51 0.51 0.53 0.55 0.55 0.57 0.57 0.56 0.57 0.55 0.54 0.56
1.09 1.04 0.98 0.84 0.70 0.66 0.73 0.79 0.79 0.75 0.71 0.73 0.73 0.70 0.69 0.66 0.62 0.62 0.68 0.75 0.76 0.72 0.67 0.66 0.68 0.71 0.70 0.68 0.67 0.64 0.61 0.61 0.59 0.55 0.52 0.51 0.50 0.51 0.50 0.48 0.49 0.51 0.52 0.51